WA2GUG Weather Reports


time (UTC)temp
C
wind
direction
speed
KPH
gust
KPH
rain 1hr
cm
rain 24hr
cm
rain mn
cm
humidity
%
barometer
mb
20260903213203 33 349 0.0 0.0 0.00 0.00 0.00 99 1008.0
20260903212703 34 45 0.0 0.0 0.00 0.00 0.00 99 1008.0
20260903212203 34 330 0.0 0.0 0.00 0.00 0.00 99 1008.0
20260903211703 35 9 0.0 0.0 0.00 0.00 0.00 99 1008.0
20260903211203 36 43 0.0 0.0 0.00 0.00 0.00 99 1008.0
20260903210703 37 12 0.0 0.0 0.00 0.00 0.00 99 1008.0
20260903210203 38 249 0.0 0.0 0.00 0.00 0.00 99 1008.0
20260903205703 38 349 0.0 0.0 0.00 0.00 0.00 99 1008.0
20260903205203 38 8 0.0 0.0 0.00 0.00 0.00 99 1008.0
20260903204703 38 41 0.0 0.0 0.00 0.00 0.00 99 1008.0
20260903204203 37 186 0.0 0.0 0.00 0.00 0.00 99 1008.0
20260903203703 36 352 0.0 0.0 0.00 0.00 0.00 99 1008.0
20260903203203 37 22 0.0 0.0 0.00 0.00 0.00 99 1008.0
20260903202703 37 84 0.0 0.0 0.00 0.00 0.00 99 1008.0
20260903202203 37 305 0.0 0.0 0.00 0.00 0.00 99 1008.0
20260903201703 36 173 0.0 0.0 0.00 0.00 0.00 99 1008.0
20260903201203 36 313 0.0 0.0 0.00 0.00 0.00 99 1008.0
20260903200703 36 69 0.0 0.0 0.00 0.00 0.00 99 1008.0
20260903200203 36 4 0.0 0.0 0.00 0.00 0.00 99 1008.0
20260903195703 35 39 0.0 1.6 0.00 0.00 0.00 99 1008.0
20260903195203 36 358 0.0 1.6 0.00 0.00 0.00 99 1008.0
20260903194703 35 89 0.0 1.6 0.00 0.00 0.00 99 1008.0
20260903194203 35 44 0.0 1.6 0.00 0.00 0.00 99 1008.0
20260903193703 35 41 0.0 0.0 0.00 0.00 0.00 99 1008.0
20260903193203 36 34 0.0 0.0 0.00 0.00 0.00 99 1008.0
20260903192703 -17 354 0.0 0.0 0.00 0.00 0.00 99 1008.0
20260903192203 -17 272 0.0 0.0 0.00 0.00 0.00 99 1008.0
20260903191703 30 243 0.0 0.0 0.00 0.00 0.00 99 1008.0
20260903191203 29 145 0.0 0.0 0.00 0.00 0.00 99 1008.2
20260903190703 29 223 0.0 0.0 0.00 0.00 0.00 99 1008.2
20260903190203 28 239 0.0 0.0 0.00 0.00 0.00 99 1008.2
20260903185703 28 229 0.0 0.0 0.00 0.00 0.00 99 1008.2
20260903185203 28 152 0.0 0.0 0.00 0.00 0.00 99 1009.0
20260903184703 28 216 0.0 0.0 0.00 0.00 0.00 99 1009.0
20260903184203 29 168 0.0 0.0 0.00 0.00 0.00 99 1009.0
20260903183703 30 220 0.0 0.0 0.00 0.00 0.00 99 1009.0
20260903183203 32 267 0.0 0.0 0.00 0.00 0.00 99 1009.0
20260903182703 33 264 0.0 0.0 0.00 0.00 0.00 99 1009.0
20260903182203 35 266 0.0 0.0 0.00 0.00 0.00 99 1009.0
20260903181703 -17 221 0.0 0.0 0.00 0.00 0.00 99 1009.0
20260903181203 33 309 0.0 0.0 0.00 0.00 0.00 99 1009.0
20260903180703 33 293 0.0 0.0 0.00 0.00 0.00 99 1009.0
20260903180203 -17 240 0.0 0.0 0.00 0.00 0.00 99 1009.0
20260903175703 -17 243 0.0 0.0 0.00 0.00 0.00 99 1009.0
20260903175203 -17 228 0.0 0.0 0.00 0.00 0.00 99 1009.0
20260903174703 29 179 0.0 0.0 0.00 0.00 0.00 99 1009.0
20260903174203 29 249 0.0 0.0 0.00 0.00 0.00 99 1009.0
20260903173703 29 278 0.0 0.0 0.00 0.00 0.00 99 1009.0
20260903173203 -17 198 0.0 0.0 0.00 0.00 0.00 99 1009.0
20260903172703 -17 264 0.0 0.0 0.00 0.00 0.00 99 1009.0
20260903172203 -17 233 0.0 0.0 0.00 0.00 0.00 99 1009.0
20260903171703 -17 163 0.0 0.0 0.00 0.00 0.00 99 1009.0
20260903171203 -17 252 0.0 0.0 0.00 0.00 0.00 99 1009.0
20260903170703 -17 294 0.0 0.0 0.00 0.00 0.00 99 1009.0
20260903170203 -17 276 0.0 0.0 0.00 0.00 0.00 99 1009.0
20260903165703 -17 171 0.0 0.0 0.00 0.00 0.00 99 1009.0
20260903165203 -17 166 0.0 0.0 0.00 0.00 0.00 99 1009.0
20260903164703 -17 54 0.0 0.0 0.00 0.00 0.00 99 1009.0
20260903164203 -17 261 0.0 0.0 0.00 0.00 0.00 99 1009.0
20260903163703 -17 260 0.0 0.0 0.00 0.00 0.00 99 1009.0
20260903163203 -17 13 0.0 0.0 0.00 0.00 0.00 99 1009.0
20260903162703 -17 312 0.0 0.0 0.00 0.00 0.00 99 1009.0
20260903162203 -17 327 0.0 0.0 0.00 0.00 0.00 99 1009.0
20260903161703 -17 285 0.0 0.0 0.00 0.00 0.00 99 1009.0
20260903161203 -17 271 0.0 0.0 0.00 0.00 0.00 99 1009.0
20260903160703 -17 278 0.0 0.0 0.00 0.00 0.00 99 1009.0
20260903160203 -17 317 0.0 0.0 0.00 0.00 0.00 99 1009.0
20260903155703 -17 243 0.0 0.0 0.00 0.00 0.00 99 1009.0
20260903155203 -17 253 0.0 0.0 0.00 0.00 0.00 99 1009.0
20260903154703 -17 218 0.0 0.0 0.00 0.00 0.00 99 1009.2
20260903154203 -17 119 0.0 0.0 0.00 0.00 0.00 99 1010.0
20260903153703 -17 168 0.0 0.0 0.00 0.00 0.00 99 1009.2
20260903153203 -17 217 0.0 0.0 0.00 0.00 0.00 99 1010.0
20260903152703 -17 310 0.0 0.0 0.00 0.00 0.00 99 1009.1
20260903152203 -17 135 0.0 0.0 0.00 0.00 0.00 99 1009.0
20260903151703 -17 282 0.0 0.0 0.00 0.00 0.00 99 1009.1
20260903151203 -17 135 0.0 0.0 0.00 0.00 0.00 99 1009.0
20260903150702 -17 233 0.0 0.0 0.00 0.00 0.00 99 1009.0
20260903150203 -17 267 0.0 0.0 0.00 0.00 0.00 99 1009.0
20260903145703 -17 231 0.0 0.0 0.00 0.00 0.00 99 1009.0
20260903145203 -17 270 0.0 0.0 0.00 0.00 0.00 99 1009.0
20260903144703 -17 212 0.0 0.0 0.00 0.00 0.00 99 1009.1
20260903144203 -17 165 0.0 0.0 0.00 0.00 0.00 99 1009.2
20260903143702 -17 290 0.0 0.0 0.00 0.00 0.00 99 1009.2
20260903143202 -17 7 0.0 0.0 0.00 0.00 0.00 99 1010.0
20260903142703 -17 60 0.0 0.0 0.00 0.00 0.00 99 1009.2
20260903142203 -17 313 0.0 0.0 0.00 0.00 0.00 99 1009.2
20260903141703 -17 160 0.0 0.0 0.00 0.00 0.00 99 1009.2
20260903141202 -17 290 0.0 0.0 0.00 0.00 0.00 99 1009.2
20260903140702 -17 261 0.0 0.0 0.00 0.00 0.00 99 1009.2
20260903140202 -17 278 0.0 0.0 0.00 0.00 0.00 99 1009.2
20260903135702 -17 299 0.0 0.0 0.00 0.00 0.00 99 1010.0
20260903135202 -17 140 0.0 0.0 0.00 0.00 0.00 99 1009.2
20260903134702 -17 212 0.0 0.0 0.00 0.00 0.00 99 1009.2
20260903134202 -17 153 0.0 0.0 0.00 0.00 0.00 99 1009.1
20260903133702 -17 246 0.0 0.0 0.00 0.00 0.00 99 1009.0
20260903133202 -17 178 0.0 0.0 0.00 0.00 0.00 99 1009.2
20260903132702 -17 138 0.0 0.0 0.00 0.00 0.00 99 1009.2
20260903132202 -17 40 0.0 0.0 0.00 0.00 0.00 99 1010.0
20260903131703 -17 175 0.0 0.0 0.00 0.00 0.00 99 1009.2
20260903131202 -17 86 0.0 0.0 0.00 0.00 0.00 99 1009.2
20260903130702 -17 287 0.0 0.0 0.00 0.00 0.00 99 1009.2
20260903130202 -17 178 0.0 0.0 0.00 0.00 0.00 99 1009.1
20260903125703 -17 207 0.0 0.0 0.00 0.00 0.00 99 1009.2
20260903125203 -17 160 0.0 0.0 0.00 0.00 0.00 99 1009.2
20260903124702 -17 152 0.0 0.0 0.00 0.00 0.00 99 1010.0
20260903124202 -17 171 0.0 0.0 0.00 0.00 0.00 99 1010.0
20260903123702 -17 135 0.0 0.0 0.00 0.00 0.00 99 1010.0
20260903123207 -17 143 0.0 0.0 0.00 0.00 0.00 99 1010.0
20260903114702 -17 43 0.0 0.0 0.00 0.00 0.00 99 1010.0
20260903114202 -17 57 0.0 0.0 0.00 0.00 0.00 99 1009.2
20260903113702 -17 101 0.0 0.0 0.00 0.00 0.00 99 1010.0
20260903113202 -17 76 0.0 0.0 0.00 0.00 0.00 99 1010.0
20260903112702 -17 1 0.0 0.0 0.00 0.00 0.00 99 1010.0
20260903112202 -17 250 0.0 0.0 0.00 0.00 0.00 99 1010.0
20260903111702 -17 91 0.0 0.0 0.00 0.00 0.00 99 1010.0
20260903111202 -17 155 0.0 0.0 0.00 0.00 0.00 99 1010.0
20260903110702 -17 157 0.0 0.0 0.00 0.00 0.00 99 1010.0
20260903110202 -17 267 0.0 0.0 0.00 0.00 0.00 99 1010.0
20260903105702 -17 291 0.0 0.0 0.00 0.00 0.00 99 1010.0
20260903105202 -17 281 0.0 0.0 0.00 0.00 0.00 99 1010.0
20260903104702 -17 323 0.0 0.0 0.00 0.00 0.00 99 1010.0
20260903104202 -17 264 0.0 0.0 0.00 0.00 0.00 99 1010.0
20260903103702 -17 135 0.0 0.0 0.00 0.00 0.00 99 1010.0
20260903103202 -17 196 0.0 0.0 0.00 0.00 0.00 99 1010.0
20260903102702 -17 165 0.0 0.0 0.00 0.00 0.00 99 1010.0
20260903102202 -17 138 0.0 0.0 0.00 0.00 0.00 99 1010.0
20260903101702 -17 76 0.0 0.0 0.00 0.00 0.00 99 1010.0
20260903101202 -17 211 0.0 0.0 0.00 0.00 0.00 99 1009.2
20260903100702 -17 150 0.0 0.0 0.00 0.00 0.00 99 1010.0
20260903100202 -17 135 0.0 0.0 0.00 0.00 0.00 99 1010.0
20260903095702 -17 79 0.0 0.0 0.00 0.00 0.00 99 1010.0
20260903095202 -17 96 0.0 0.0 0.00 0.00 0.00 99 1010.0
20260903094702 -17 274 0.0 0.0 0.00 0.00 0.00 99 1010.0
20260903094202 -17 267 0.0 0.0 0.00 0.00 0.00 99 1009.2
20260903093702 -17 136 0.0 0.0 0.00 0.00 0.00 99 1010.0
20260903093202 -17 135 0.0 0.0 0.00 0.00 0.00 99 1009.2
20260903092702 -17 270 0.0 0.0 0.00 0.00 0.00 99 1010.0
20260903092202 -17 266 0.0 0.0 0.00 0.00 0.00 99 1009.2
20260903091702 -17 264 0.0 0.0 0.00 0.00 0.00 99 1010.0
20260903091202 -17 237 0.0 0.0 0.00 0.00 0.00 99 1009.2
20260903090702 -17 169 0.0 0.0 0.00 0.00 0.00 99 1010.0
20260903090202 -17 286 0.0 0.0 0.00 0.00 0.00 99 1009.2
20260903085702 -17 331 0.0 0.0 0.00 0.00 0.00 99 1010.0
20260903085202 -17 4 0.0 0.0 0.00 0.00 0.00 99 1010.0
20260903084702 -17 162 0.0 0.0 0.00 0.00 0.00 99 1010.0
20260903084202 -17 174 0.0 0.0 0.00 0.00 0.00 99 1009.2
20260903083702 -17 251 0.0 0.0 0.00 0.00 0.00 99 1010.0
20260903083202 -17 180 0.0 0.0 0.00 0.00 0.00 99 1009.2
20260903082702 -17 276 0.0 0.0 0.00 0.00 0.00 99 1010.0
20260903082202 -17 150 0.0 0.0 0.00 0.00 0.00 99 1010.0
20260903081702 -17 124 0.0 0.0 0.00 0.00 0.00 99 1010.0
20260903081202 -17 33 0.0 0.0 0.00 0.00 0.00 99 1010.0
20260903080702 -17 247 0.0 0.0 0.00 0.00 0.00 99 1010.0
20260903080202 -17 270 0.0 0.0 0.00 0.00 0.00 99 1009.2
20260903075702 -17 280 0.0 0.0 0.00 0.00 0.00 99 1009.2
20260903075202 -17 293 0.0 0.0 0.00 0.00 0.00 99 1009.2
20260903074702 -17 198 0.0 0.0 0.00 0.00 0.00 99 1009.2
20260903074202 -17 136 0.0 0.0 0.00 0.00 0.00 99 1009.2
20260903073702 -17 256 0.0 0.0 0.00 0.00 0.00 99 1010.0
20260903073202 -17 182 0.0 0.0 0.00 0.00 0.00 99 1009.2
20260903072702 -17 139 0.0 0.0 0.00 0.00 0.00 99 1009.1
20260903072202 -17 193 0.0 0.0 0.00 0.00 0.00 99 1009.0
20260903071702 -17 288 0.0 0.0 0.00 0.00 0.00 99 1009.0
20260903071202 -17 257 0.0 0.0 0.00 0.00 0.00 99 1009.0
20260903070702 -17 185 0.0 0.0 0.00 0.00 0.00 99 1009.1
20260903070202 -17 216 0.0 0.0 0.00 0.00 0.00 99 1009.1
20260903065702 -17 139 0.0 0.0 0.00 0.00 0.00 99 1009.2
20260903065202 -17 277 0.0 0.0 0.00 0.00 0.00 99 1009.2
20260903064702 -17 184 0.0 0.0 0.00 0.00 0.00 99 1009.0
20260903064202 -17 265 0.0 0.0 0.00 0.00 0.00 99 1009.0
20260903063702 -17 187 0.0 0.0 0.00 0.00 0.00 99 1009.0
20260903063202 -17 184 0.0 0.0 0.00 0.00 0.00 99 1009.0
20260903062702 -17 185 0.0 0.0 0.00 0.00 0.00 99 1009.0
20260903062202 -17 251 0.0 0.0 0.00 0.00 0.00 99 1009.0
20260903061702 -17 95 0.0 0.0 0.00 0.00 0.00 99 1009.0
20260903061202 -17 135 0.0 0.0 0.00 0.00 0.00 99 1009.0
20260903060702 -17 101 0.0 0.0 0.00 0.00 0.00 99 1009.0
20260903060202 -17 282 0.0 0.0 0.00 0.00 0.00 99 1009.0
20260903055702 -17 131 0.0 0.0 0.00 0.00 0.00 99 1009.2
20260903055202 -17 277 0.0 0.0 0.00 0.00 0.00 99 1009.2
20260903054702 -17 274 0.0 0.0 0.00 0.00 0.00 99 1010.0
20260903054202 -17 180 0.0 0.0 0.00 0.00 0.00 99 1010.0
20260903053702 -17 222 0.0 0.0 0.00 0.00 0.00 99 1010.0
20260903053202 -17 286 0.0 0.0 0.00 0.00 0.00 99 1010.0
20260903052702 -17 214 0.0 0.0 0.00 0.00 0.00 99 1010.0
20260903052202 -17 284 0.0 0.0 0.00 0.00 0.00 99 1010.0
20260903051702 -17 89 0.0 0.0 0.00 0.00 0.00 99 1010.0
20260903051202 -17 194 0.0 0.0 0.00 0.00 0.00 99 1010.0
20260903050702 -17 231 0.0 0.0 0.00 0.00 0.00 99 1010.0
20260903050202 -17 225 0.0 0.0 0.00 0.00 0.00 99 1010.0
20260903045702 -17 217 0.0 0.0 0.00 0.00 0.00 99 1010.0
20260903045202 -17 214 0.0 0.0 0.00 0.00 0.00 99 1010.1
20260903044702 -17 219 0.0 0.0 0.00 0.00 0.00 99 1011.0
20260903044202 -17 225 0.0 0.0 0.00 0.00 0.00 99 1010.1
20260903043702 -17 227 0.0 0.0 0.00 0.00 0.00 99 1010.0
20260903043202 -17 232 0.0 0.0 0.00 0.00 0.00 99 1009.2
20260903042702 -17 234 0.0 0.0 0.00 0.00 0.00 99 1010.0
20260903042202 -17 274 0.0 0.0 0.00 0.00 0.00 99 1010.0
20260903041702 -17 227 0.0 0.0 0.00 0.00 0.00 99 1010.2
20260903041202 -17 303 0.0 0.0 0.00 0.00 0.00 99 1011.0
20260903040702 -17 229 0.0 0.0 0.00 0.00 0.00 99 1011.0
20260903040202 -17 208 0.0 0.0 0.00 0.00 0.00 99 1011.0
20260903035702 -17 233 0.0 0.0 0.00 0.00 0.00 99 1011.0
20260903035202 -17 161 0.0 0.0 0.00 0.00 0.00 99 1011.0
20260903034702 -17 277 0.0 0.0 0.00 0.00 0.00 99 1011.0
20260903034202 -17 118 0.0 0.0 0.00 0.00 0.00 99 1011.2
20260903033702 -17 269 0.0 0.0 0.00 0.00 0.00 99 1012.0
20260903033202 -17 260 0.0 0.0 0.00 0.00 0.00 99 1011.2
20260903032702 -17 273 0.0 0.0 0.00 0.00 0.00 99 1011.0
20260903032202 -17 271 0.0 0.0 0.00 0.00 0.00 99 1011.0
20260903031702 -17 102 0.0 3.2 0.00 0.00 0.00 99 1011.0
20260903031202 -17 352 0.0 3.2 0.00 0.00 0.00 99 1010.2
20260903030702 -17 86 0.0 4.8 0.00 0.00 0.00 99 1011.0
20260903030202 -17 262 0.0 6.4 0.00 0.00 0.00 99 1011.0
20260903025702 -17 299 0.0 6.4 0.00 0.00 0.00 99 1011.0
20260903025202 -17 275 0.0 1.6 0.00 0.00 0.00 99 1011.0
20260903024702 -17 247 0.0 3.2 0.00 0.00 0.00 99 1011.0
20260903024202 -17 274 0.0 3.2 0.00 0.00 0.00 99 1011.0
20260903023702 -17 271 0.0 0.0 0.00 0.00 0.00 99 1011.0
20260903023202 -17 233 0.0 0.0 0.00 0.00 0.00 99 1011.0
20260903022702 -17 140 0.0 0.0 0.00 0.00 0.00 99 1011.0
20260903022202 -17 90 0.0 0.0 0.00 0.00 0.00 99 1011.2
20260903021702 -17 273 0.0 0.0 0.00 0.00 0.00 99 1012.0
20260903021202 -17 323 0.0 0.0 0.00 0.00 0.00 99 1012.0
20260903020702 -17 170 0.0 0.0 0.00 0.00 0.00 99 1012.0
20260903020202 -17 91 0.0 0.0 0.00 0.00 0.00 99 1011.2
20260903015702 -17 270 0.0 0.0 0.00 0.00 0.00 99 1012.0
20260903015202 -17 271 0.0 0.0 0.00 0.00 0.00 99 1012.0
20260903014702 -17 127 0.0 0.0 0.00 0.00 0.00 99 1012.0
20260903014202 -17 137 0.0 0.0 0.00 0.00 0.00 99 1012.0
20260903013702 -17 272 0.0 0.0 0.00 0.00 0.00 99 1012.0
20260903013202 -17 277 0.0 0.0 0.00 0.00 0.00 99 1011.2
20260903012701 -17 317 0.0 0.0 0.00 0.00 0.00 99 1012.0
20260903012202 -17 85 0.0 0.0 0.00 0.00 0.00 99 1012.0
20260903011702 -17 269 0.0 0.0 0.00 0.00 0.00 99 1012.0
20260903011201 -17 269 0.0 0.0 0.00 0.00 0.00 99 1011.2
20260903010701 -17 308 0.0 4.8 0.00 0.00 0.00 99 1012.0
20260903010201 -17 283 0.0 8.0 0.00 0.00 0.00 99 1012.0
20260903005702 -17 49 1.6 8.0 0.00 0.00 0.00 99 1012.0
20260903005201 -17 298 0.0 3.2 0.00 0.00 0.00 99 1012.0
20260903004701 -17 277 0.0 1.6 0.00 0.00 0.00 99 1012.0
20260903004201 -17 274 0.0 1.6 0.00 0.00 0.00 99 1012.0
20260903003701 -17 261 0.0 4.8 0.00 0.00 0.00 99 1011.2
20260903003201 -17 256 0.0 4.8 0.00 0.00 0.00 99 1011.2
20260903002701 -17 83 0.0 1.6 0.00 0.00 0.00 99 1012.0
20260903002201 -17 136 0.0 1.6 0.00 0.00 0.00 99 1011.2
20260903001702 -17 251 0.0 3.2 0.00 0.00 0.00 99 1011.2
20260903001201 -17 230 0.0 3.2 0.00 0.00 0.00 99 1011.0
20260903000701 -17 87 0.0 0.0 0.00 0.00 0.00 99 1011.0
20260903000204 -17 275 0.0 0.0 0.00 0.00 0.00 99 1011.2
20260902235701 -17 280 0.0 0.0 0.00 0.00 0.00 99 1012.0
20260902235201 -17 50 0.0 0.0 0.00 0.00 0.00 99 1012.0
20260902234701 -17 284 0.0 0.0 0.00 0.00 0.00 99 1012.0
20260902234201 -17 93 0.0 0.0 0.00 0.00 0.00 99 1012.0
20260902233701 -17 271 0.0 4.8 0.00 0.00 0.00 99 1012.0
20260902233201 -17 229 0.0 6.4 0.00 0.00 0.00 99 1012.0
20260902232701 -17 270 0.0 6.4 0.00 0.00 0.00 99 1012.0
20260902232201 -17 265 0.0 0.0 0.00 0.00 0.00 99 1012.0
20260902231702 -17 253 0.0 0.0 0.00 0.00 0.00 99 1012.0
20260902231201 -17 269 0.0 0.0 0.00 0.00 0.00 99 1012.0
20260902230701 -17 308 0.0 0.0 0.00 0.00 0.00 99 1012.0
20260902230201 -17 265 0.0 0.0 0.00 0.00 0.00 99 1012.0
20260902225701 -17 258 0.0 8.0 0.00 0.00 0.00 99 1012.0
20260902225201 -17 276 1.6 11.3 0.00 0.00 0.00 99 1012.0
20260902224701 -17 268 3.2 11.3 0.00 0.00 0.00 99 1012.0
20260902224201 -17 125 1.6 6.4 0.00 0.00 0.00 99 1012.2
20260902223701 -17 266 1.6 6.4 0.00 0.00 0.00 99 1013.0
20260902223201 -17 174 0.0 6.4 0.00 0.00 0.00 99 1013.0
20260902222701 -17 263 0.0 6.4 0.00 0.00 0.00 99 1012.2
20260902222201 -17 126 0.0 1.6 0.00 0.00 0.00 99 1013.0
20260902221702 -17 89 0.0 4.8 0.00 0.00 0.00 99 1012.2
20260902221201 -17 267 0.0 4.8 0.00 0.00 0.00 99 1013.0
20260902220701 -17 95 1.6 4.8 0.00 0.00 0.00 99 1012.2
20260902215701 -17 90 1.6 6.4 0.00 0.00 0.00 99 1012.2
20260902215201 -17 129 3.2 6.4 0.00 0.00 0.00 99 1012.2
20260902214701 -17 268 0.0 4.8 0.00 0.00 0.00 99 1012.2
20260902214201 -17 275 0.0 4.8 0.00 0.00 0.00 99 1013.0
20260902213701 -17 250 1.6 6.4 0.00 0.00 0.00 99 1013.0